Погода в Абано-Терме

Италия     45°21′36″N   11°47′42″E
темп.,
°C
ветер,
м/с
пор.,
м/с
влажн.,
%
обл.,
%
осадки,
мм/ч
давл.,
гПа
погр.,
м
10 мая, пн
пн1023:00+14вюв1165100 0.0 101812
02:00+13всв116499 0.0 101811
05:00+13ссв11654 0.0 101712
08:00+15ссв23640 0.0 1018175
11:00+20всв33550 0.0 1017750
14:00+22в33540 0.0 10161080
17:00+22всв43585 0.0 1015816
20:00+17в4779100 0.0 1014207
11 мая, вт
вт1123:00+15св3481100 0.0 101597
02:00+16ссв4784100 0.0 1014287
05:00+14св258138 0.0 1013116
08:00+15ссв3679100 0.0 1012262
11:00+17св4577100 0.1 1013380
14:00+17всв6883100 2.9 1012699
17:00+15в5889100 1.4 1010500
20:00+14в4794100 4.1 1008404
12 мая, ср
ср1223:00+14ссв3696100 0.7 1007268
02:00+13ссв1299100 8.3 1005168
05:00+13з3598100 16.0 1004283
08:00+13юз4795100 19.2 1004443
11:00+13з3494100 0.8 1005308
14:00+13зюз4694100 1.5 1005391
17:00+13зюз2494100 0.6 1005312
20:00+12юз2296100 1.1 1004109
13 мая, чт
чт1323:00+12з2297100 0.3 100592
02:00+11зюз2397100 1.2 1004139
05:00+11юз2598100 1.1 1003254
08:00+12з2491100 1.1 1003334
11:00+14зюз1185100 0.3 1004520
14:00+17юз2372100 1.0 1004883
17:00+16ю3482100 2.4 1004404
20:00+14вюв1190100 4.6 100524
14 мая, пт
пт1423:00+12вюв1194100 3.1 100738
02:00+12св1193100 3.3 100819
05:00+12св2294100 0.0 100851
08:00+13ссв2394100 0.0 1009155
11:00+15всв2282100 0.0 1010536
14:00+17в2270100 0.8 1010781
17:00+16юв2382100 3.6 1010299
20:00+16ююв1176100 5.0 101111